User: anonymous   Login
Location: Unspecified
(0.0000°N, 0.0000°E)
Time: 15:03:41
(UTC+00:00)
Language:

Delta IV Demo - Orbit

View from above orbital plane
View from above orbital plane
View from above satellite
View from above satellite

Ground track
Ground track

The orbit data is extracted from the following two-line orbital elements,

1 28500U 04050A   18290.20200636 0.00000000  00000-0  00000-0 0    06
2 28500  16.3494  25.5917 2774684 203.0340 141.6597  1.41306263    02
Epoch (UTC): 17 October 2018 04:50:53
Eccentricity: 0.2774684
inclination: 16.3494°
perigee height: 17859 km
apogee height: 36474 km
right ascension of ascending node: 25.5917°
argument of perigee: 203.0340°
revolutions per day: 1.41306263
mean anomaly at epoch: 141.6597°
orbit number at epoch: 0

The dashed part of the orbit path shows where the satellite is in the earth's shadow,  

DLR